Location: Bergnershof
(48.9468°N, 10.9431°E)
Time: 14:38:32
(UTC+00:00)

Cosmos 2333 Rocket - Pass Details

Date: 28 June 2021
Orbit: 841 x 861 km, 70.8° (Epoch: 28 July)

Event Time Altitude Azimuth Distance (km) Brightness Sun altitude
Rises 20:23:16 0° 234° (SW) 3,422 5.4 -7.8°
Reaches altitude 10° 20:25:55 10° 243° (WSW) 2,487 4.8 -8.1°
Maximum altitude 20:31:11 37° 310° (NW) 1,308 4.0 -8.6°
Drops below altitude 10° 20:36:27 10° 17° (NNE) 2,487 5.2 -9.2°
Sets 20:39:07 0° 26° (NNE) 3,423 5.8 -9.4°
